EW1315 Weather Reports


time (UTC)temp
F
wind
direction
speed
knots
gust
knots
rain 1hr
in
rain 24hr
in
rain mn
in
humidity
%
barometer
mb
20260902034503 61 165 0.9 2.6 0.00 0.00 0.00 84 1016.2
20260902034003 61 166 0.9 2.6 0.00 0.00 0.00 84 1016.1
20260902033503 61 170 0.9 3.5 0.00 0.00 0.00 83 1016.1
20260902033003 61 170 0.9 4.3 0.00 0.00 0.00 83 1015.9
20260902032503 61 168 1.7 4.3 0.00 0.00 0.00 83 1016.0
20260902032003 61 161 0.9 4.3 0.00 0.00 0.00 83 1016.1
20260902031716 61 163 1.7 3.5 0.00 0.00 0.00 83 1016.2
20260902031003 61 166 0.9 3.5 0.00 0.00 0.00 83 1016.3
20260902030503 61 170 0.9 4.3 0.00 0.00 0.00 83 1016.2
20260902030004 61 167 0.9 4.3 0.00 0.00 0.00 83 1016.2
20260902025503 61 154 0.9 4.3 0.00 0.00 0.00 83 1016.1
20260902025005 61 162 0.9 4.3 0.00 0.00 0.00 83 1016.3
20260902024504 61 172 0.9 3.5 0.00 0.00 0.00 83 1016.3
20260902024216 61 165 0.9 2.6 0.00 0.00 0.00 83 1016.4
20260902023503 61 158 0.9 3.5 0.00 0.00 0.00 83 1016.3
20260902023003 61 163 0.9 2.6 0.00 0.00 0.00 83 1016.5
20260902022503 61 166 0.9 2.6 0.00 0.00 0.00 83 1016.5
20260902022003 61 157 0.9 2.6 0.00 0.00 0.00 82 1016.5
20260902021503 61 142 0.9 2.6 0.00 0.00 0.00 82 1016.7
20260902021214 61 130 0.0 1.7 0.00 0.00 0.00 82 1016.5
20260902020503 61 155 0.9 3.5 0.00 0.00 0.00 82 1016.8
20260902020003 61 158 0.9 3.5 0.00 0.00 0.00 82 1016.9
20260902015713 61 156 0.9 2.6 0.00 0.00 0.00 82 1016.8
20260902015004 61 163 0.9 2.6 0.00 0.00 0.00 82 1016.8
20260902014504 61 162 0.9 2.6 0.00 0.00 0.00 82 1016.9
20260902014003 61 152 0.9 2.6 0.00 0.00 0.00 83 1016.7
20260902013715 61 154 0.9 1.7 0.00 0.00 0.00 83 1016.7
20260902013004 61 159 0.9 3.5 0.00 0.00 0.00 83 1016.7
20260902012503 61 149 0.0 2.6 0.00 0.00 0.00 84 1016.8
20260902012003 61 135 0.0 1.7 0.00 0.00 0.00 84 1017.0
20260902011503 61 141 0.9 1.7 0.00 0.00 0.00 84 1017.0
20260902011003 61 150 0.9 1.7 0.00 0.00 0.00 83 1016.9
20260902010503 61 153 0.9 2.6 0.00 0.00 0.00 83 1017.1
20260902010216 61 153 0.9 2.6 0.00 0.00 0.00 83 1017.0
20260902005505 61 151 0.9 2.6 0.00 0.00 0.00 83 1017.2
20260902005217 61 152 0.9 2.6 0.00 0.00 0.00 83 1017.1
20260902004505 61 168 0.9 3.5 0.00 0.00 0.00 82 1017.4
20260902004003 61 174 0.9 3.5 0.00 0.00 0.00 82 1017.4
20260902003715 61 174 0.9 3.5 0.00 0.00 0.00 82 1017.3
20260902003003 61 164 0.9 2.6 0.00 0.00 0.00 82 1017.3
20260902002503 61 165 0.9 2.6 0.00 0.00 0.00 82 1017.1
20260902002004 61 178 0.9 4.3 0.00 0.00 0.00 82 1016.9
20260902001504 61 174 1.7 4.3 0.00 0.00 0.00 81 1017.1
20260902001003 61 163 0.9 3.5 0.00 0.00 0.00 82 1017.3
20260902000503 61 167 0.9 2.6 0.00 0.00 0.00 81 1017.3
20260902000004 61 162 0.9 2.6 0.00 0.00 0.00 81 1017.3
20260901235503 61 162 0.9 3.5 0.00 0.00 0.00 82 1017.2
20260901235003 61 165 0.9 3.5 0.00 0.00 0.00 82 1017.3
20260901234503 61 170 0.9 3.5 0.00 0.00 0.00 82 1017.1
20260901234003 61 166 0.9 3.5 0.00 0.00 0.00 82 1017.2
20260901233503 61 159 0.9 3.5 0.00 0.00 0.00 83 1017.3
20260901233214 61 161 0.9 3.5 0.00 0.00 0.00 83 1017.3
20260901232503 61 171 0.9 3.5 0.00 0.00 0.00 83 1017.3
20260901232003 61 167 0.9 3.5 0.00 0.00 0.00 83 1017.4
20260901231504 61 158 0.9 3.5 0.00 0.00 0.00 82 1017.5
20260901231005 61 163 0.9 4.3 0.00 0.00 0.00 82 1017.4
20260901230503 61 169 0.9 4.3 0.00 0.00 0.00 82 1017.4
20260901230013 61 166 0.9 2.6 0.00 0.00 0.00 82 1017.6
20260901225503 61 155 0.9 2.6 0.00 0.00 0.00 82 1017.5
20260901225003 61 149 0.9 2.6 0.00 0.00 0.00 81 1017.4
20260901224503 61 149 0.9 2.6 0.00 0.00 0.00 81 1017.5
20260901224219 61 152 0.9 2.6 0.00 0.00 0.00 81 1017.6
20260901223503 61 158 0.9 2.6 0.00 0.00 0.00 81 1017.6
20260901223004 62 156 0.9 2.6 0.00 0.00 0.00 81 1017.7
20260901222503 62 156 0.9 2.6 0.00 0.00 0.00 80 1017.7
20260901222003 62 163 0.9 3.5 0.00 0.00 0.00 80 1017.7
20260901221503 62 163 0.9 3.5 0.00 0.00 0.00 79 1017.6
20260901221003 62 155 0.9 3.5 0.00 0.00 0.00 79 1017.5
20260901220715 62 165 0.9 3.5 0.00 0.00 0.00 78 1017.6
20260901220003 62 162 0.9 3.5 0.00 0.00 0.00 78 1017.5
20260901215505 62 167 0.9 3.5 0.00 0.00 0.00 78 1017.6
20260901215003 62 161 0.9 2.6 0.00 0.00 0.00 78 1017.6
20260901214503 62 141 0.9 2.6 0.00 0.00 0.00 78 1017.6
20260901214003 62 135 0.9 1.7 0.00 0.00 0.00 77 1017.6
20260901213718 62 141 0.9 1.7 0.00 0.00 0.00 77 1017.6
20260901213003 62 134 0.9 2.6 0.00 0.00 0.00 76 1017.7
20260901212503 62 142 0.9 2.6 0.00 0.00 0.00 76 1017.7
20260901212003 62 159 0.9 2.6 0.00 0.00 0.00 76 1017.7
20260901211503 62 152 0.9 1.7 0.00 0.00 0.00 75 1017.7
20260901211004 62 143 0.9 2.6 0.00 0.00 0.00 75 1017.7
20260901210503 62 148 0.9 2.6 0.00 0.00 0.00 75 1017.6
20260901210003 62 148 0.9 1.7 0.00 0.00 0.00 75 1017.6
20260901205716 62 146 0.0 1.7 0.00 0.00 0.00 75 1017.6
20260901205003 62 151 0.0 1.7 0.00 0.00 0.00 75 1017.5
20260901204503 62 149 0.0 1.7 0.00 0.00 0.00 75 1017.6
20260901204003 62 147 0.0 1.7 0.00 0.00 0.00 75 1017.6
20260901203503 62 150 0.0 1.7 0.00 0.00 0.00 75 1017.4
20260901203003 62 159 0.9 3.5 0.00 0.00 0.00 75 1017.6
20260901202714 62 165 0.9 3.5 0.00 0.00 0.00 75 1017.5
20260901202003 62 162 0.9 2.6 0.00 0.00 0.00 76 1017.3
20260901201503 62 152 0.9 2.6 0.00 0.00 0.00 77 1017.7
20260901201213 62 146 0.0 1.7 0.00 0.00 0.00 77 1017.4
20260901200503 63 145 0.9 1.7 0.00 0.00 0.00 76 1017.5
20260901200003 63 140 0.0 1.7 0.00 0.00 0.00 76 1017.7
20260901195503 63 137 0.0 1.7 0.00 0.00 0.00 76 1017.6
20260901195005 63 143 0.0 1.7 0.00 0.00 0.00 76 1017.9
20260901194713 63 150 0.0 1.7 0.00 0.00 0.00 76 1017.7
20260901194216 63 148 0.0 1.7 0.00 0.00 0.00 76 1017.7
20260901193503 63 135 0.0 1.7 0.00 0.00 0.00 76 1017.4
20260901193217 63 136 0.0 1.7 0.00 0.00 0.00 76 1017.4
20260901192503 63 133 0.0 1.7 0.00 0.00 0.00 76 1017.4
20260901192003 63 134 0.0 0.9 0.00 0.00 0.00 76 1017.6
20260901191503 63 129 0.0 0.9 0.00 0.00 0.00 76 1017.6
20260901191003 63 126 0.0 0.9 0.00 0.00 0.00 75 1017.7
20260901190503 63 127 0.0 0.9 0.00 0.00 0.00 75 1017.4
20260901190003 64 126 0.0 0.9 0.00 0.00 0.00 74 1017.5
20260901185503 64 125 0.0 1.7 0.00 0.00 0.00 74 1017.3
20260901185003 64 127 0.0 1.7 0.00 0.00 0.00 74 1017.3
20260901184503 64 114 0.0 1.7 0.00 0.00 0.00 73 1017.3
20260901184216 64 121 0.0 1.7 0.00 0.00 0.00 73 1017.2
20260901183503 64 110 0.0 1.7 0.00 0.00 0.00 73 1017.1
20260901183003 64 85 0.0 1.7 0.00 0.00 0.00 74 1017.2
20260901182503 64 76 0.0 1.7 0.00 0.00 0.00 74 1017.1
20260901182004 64 69 0.0 1.7 0.00 0.00 0.00 74 1017.0
20260901181503 64 68 0.0 1.7 0.00 0.00 0.00 74 1017.2
20260901181003 65 33 0.0 2.6 0.00 0.00 0.00 74 1017.2
20260901180503 64 359 0.0 2.6 0.00 0.00 0.00 74 1017.2
20260901180215 65 8 0.0 2.6 0.00 0.00 0.00 74 1017.0
20260901175503 65 18 0.0 1.7 0.00 0.00 0.00 74 1017.2
20260901175003 65 22 0.0 2.6 0.00 0.00 0.00 74 1017.0
20260901174504 65 23 0.0 2.6 0.00 0.00 0.00 74 1016.9
20260901174217 65 23 0.9 2.6 0.00 0.00 0.00 73 1017.0
20260901173504 65 348 0.9 2.6 0.00 0.00 0.00 73 1017.0
20260901173003 65 349 1.7 7.0 0.00 0.00 0.00 72 1016.9
20260901172716 66 348 1.7 7.0 0.00 0.00 0.00 71 1016.9
20260901172004 68 172 0.9 4.3 0.00 0.00 0.00 64 1017.0
20260901171503 68 182 1.7 4.3 0.00 0.00 0.00 62 1017.0
20260901171003 69 182 1.7 4.3 0.00 0.00 0.00 62 1016.8
20260901170503 69 180 0.9 3.5 0.00 0.00 0.00 61 1017.1
20260901170003 69 193 0.9 4.3 0.00 0.00 0.00 61 1016.9
20260901165503 69 210 0.9 4.3 0.00 0.00 0.00 61 1017.0
20260901165004 69 210 1.7 4.3 0.00 0.00 0.00 60 1016.9
20260901164503 69 208 1.7 5.2 0.00 0.00 0.00 59 1016.9
20260901164003 69 214 1.7 5.2 0.00 0.00 0.00 59 1017.0
20260901163503 69 208 0.9 5.2 0.00 0.00 0.00 58 1017.1
20260901163003 69 218 1.7 6.1 0.00 0.00 0.00 58 1017.0
20260901162717 68 229 1.7 6.1 0.00 0.00 0.00 58 1017.0
20260901162003 69 226 0.9 5.2 0.00 0.00 0.00 58 1016.9
20260901161503 69 240 0.9 5.2 0.00 0.00 0.00 59 1017.2
20260901161003 69 76 0.9 3.5 0.00 0.00 0.00 60 1017.1
20260901160503 69 139 0.9 2.6 0.00 0.00 0.00 58 1017.0
20260901160003 69 175 0.9 3.5 0.00 0.00 0.00 57 1016.9
20260901155714 70 176 0.9 3.5 0.00 0.00 0.00 57 1017.1
20260901155003 70 185 1.7 5.2 0.00 0.00 0.00 55 1017.0
20260901154503 70 192 1.7 5.2 0.00 0.00 0.00 55 1017.2
20260901154004 70 212 1.7 5.2 0.00 0.00 0.00 55 1017.0
20260901153503 70 216 1.7 5.2 0.00 0.00 0.00 56 1016.9
20260901153214 70 203 1.7 4.3 0.00 0.00 0.00 57 1016.9
20260901152504 70 184 1.7 4.3 0.00 0.00 0.00 57 1017.0
20260901152003 70 190 1.7 5.2 0.00 0.00 0.00 57 1016.6
20260901151503 69 186 1.7 5.2 0.00 0.00 0.00 57 1017.1
20260901151003 69 179 1.7 5.2 0.00 0.00 0.00 58 1017.1
20260901150503 68 188 1.7 7.0 0.00 0.00 0.00 58 1017.0
20260901150003 68 187 1.7 7.0 0.00 0.00 0.00 59 1017.0
20260901145504 68 186 2.6 7.0 0.00 0.00 0.00 58 1017.0
20260901145213 68 182 2.6 7.0 0.00 0.00 0.00 60 1016.9
20260901144503 68 184 2.6 6.1 0.00 0.00 0.00 63 1017.3
20260901144003 68 182 2.6 7.8 0.00 0.00 0.00 64 1017.1
20260901143503 68 180 2.6 7.8 0.00 0.00 0.00 64 1017.2
20260901143003 69 184 1.7 7.0 0.00 0.00 0.00 63 1017.3
20260901142503 69 188 1.7 6.1 0.00 0.00 0.00 62 1017.3
20260901142003 69 184 1.7 6.1 0.00 0.00 0.00 59 1017.4
20260901141503 69 180 1.7 6.1 0.00 0.00 0.00 57 1017.4
20260901141003 70 181 1.7 5.2 0.00 0.00 0.00 57 1017.4
20260901140503 70 205 1.7 3.5 0.00 0.00 0.00 57 1017.5
20260901140218 70 203 1.7 4.3 0.00 0.00 0.00 57 1017.4
20260901135503 70 193 1.7 4.3 0.00 0.00 0.00 56 1017.5
20260901135003 71 182 1.7 4.3 0.00 0.00 0.00 55 1017.3
20260901134503 70 179 1.7 4.3 0.00 0.00 0.00 55 1017.3
20260901134003 71 190 1.7 4.3 0.00 0.00 0.00 54 1017.6
20260901133712 71 182 1.7 3.5 0.00 0.00 0.00 55 1017.3
20260901133003 71 199 1.7 5.2 0.00 0.00 0.00 53 1017.3
20260901132504 73 202 1.7 5.2 0.00 0.00 0.00 53 1017.2
20260901132003 72 197 1.7 5.2 0.00 0.00 0.00 51 1017.5
20260901131504 73 194 1.7 5.2 0.00 0.00 0.00 51 1017.7
20260901131003 73 185 2.6 7.8 0.00 0.00 0.00 52 1017.3
20260901130503 72 192 2.6 7.8 0.00 0.00 0.00 53 1017.6
20260901130218 73 199 2.6 7.8 0.00 0.00 0.00 52 1017.6
20260901125716 72 197 1.7 7.0 0.00 0.00 0.00 54 1017.4
20260901125214 72 183 2.6 7.8 0.00 0.00 0.00 53 1017.3
20260901124503 72 196 1.7 7.0 0.00 0.00 0.00 52 1017.3
20260901124003 72 217 1.7 7.0 0.00 0.00 0.00 54 1017.2
20260901123504 71 221 1.7 7.0 0.00 0.00 0.00 54 1017.4
20260901123216 72 214 1.7 7.0 0.00 0.00 0.00 54 1017.1
20260901122503 71 197 1.7 7.8 0.00 0.00 0.00 55 1017.2
20260901122004 71 196 1.7 7.8 0.00 0.00 0.00 56 1017.4
20260901121505 72 200 1.7 7.8 0.00 0.00 0.00 52 1017.4
20260901121003 71 199 1.7 7.0 0.00 0.00 0.00 55 1017.4
20260901120503 72 192 1.7 8.7 0.00 0.00 0.00 52 1017.5
20260901120003 71 194 1.7 8.7 0.00 0.00 0.00 55 1017.4
20260901115503 70 184 1.7 7.0 0.00 0.00 0.00 54 1017.3
20260901115003 69 196 1.7 7.0 0.00 0.00 0.00 56 1017.5
20260901114503 71 206 1.7 5.2 0.00 0.00 0.00 54 1017.5
20260901114003 69 203 1.7 7.0 0.00 0.00 0.00 54 1017.5
20260901113503 69 211 1.7 7.0 0.00 0.00 0.00 54 1017.5
20260901113003 70 208 1.7 5.2 0.00 0.00 0.00 52 1017.5
20260901112503 70 195 1.7 4.3 0.00 0.00 0.00 54 1017.4
20260901112003 70 186 1.7 5.2 0.00 0.00 0.00 57 1017.5
20260901111503 69 185 1.7 5.2 0.00 0.00 0.00 57 1017.7
20260901111003 69 187 1.7 4.3 0.00 0.00 0.00 56 1017.6
20260901110716 67 206 1.7 4.3 0.00 0.00 0.00 59 1017.5
20260901110214 68 221 1.7 7.0 0.00 0.00 0.00 61 1017.7
20260901105505 69 197 1.7 6.1 0.00 0.00 0.00 58 1017.5
20260901105004 69 201 1.7 9.6 0.00 0.00 0.00 56 1017.7
20260901104503 68 189 1.7 9.6 0.00 0.00 0.00 59 1017.8
20260901104003 67 177 1.7 7.0 0.00 0.00 0.00 61 1017.6
20260901103503 69 181 1.7 7.0 0.00 0.00 0.00 60 1017.8
20260901103003 68 182 2.6 5.2 0.00 0.00 0.00 60 1017.6
20260901102503 69 179 1.7 5.2 0.00 0.00 0.00 61 1017.9
20260901102005 67 178 1.7 4.3 0.00 0.00 0.00 61 1017.9
20260901101716 67 181 1.7 3.5 0.00 0.00 0.00 62 1017.8
20260901101003 65 172 1.7 5.2 0.00 0.00 0.00 64 1018.2
20260901100503 67 167 1.7 4.3 0.00 0.00 0.00 64 1017.9
20260901100215 67 174 1.7 4.3 0.00 0.00 0.00 63 1017.8
20260901095503 66 175 1.7 4.3 0.00 0.00 0.00 64 1017.8
20260901095003 66 174 1.7 4.3 0.00 0.00 0.00 66 1017.9
20260901094503 66 182 1.7 5.2 0.00 0.00 0.00 67 1017.8
20260901094217 66 182 1.7 5.2 0.00 0.00 0.00 66 1017.9
20260901093503 65 173 1.7 4.3 0.00 0.00 0.00 67 1017.9
20260901093004 65 164 1.7 4.3 0.00 0.00 0.00 68 1018.0
20260901092503 66 169 1.7 4.3 0.00 0.00 0.00 69 1018.0
20260901092214 65 177 1.7 4.3 0.00 0.00 0.00 70 1018.1
20260901091504 65 179 1.7 4.3 0.00 0.00 0.00 71 1018.0
20260901091003 65 176 1.7 3.5 0.00 0.00 0.00 72 1018.1
20260901090503 63 165 1.7 4.3 0.00 0.00 0.00 73 1018.1
20260901090005 63 169 1.7 4.3 0.00 0.00 0.00 74 1018.0
20260901085503 63 171 1.7 4.3 0.00 0.00 0.00 74 1018.1
20260901085003 63 168 1.7 3.5 0.00 0.00 0.00 75 1018.1
20260901084503 63 163 0.9 3.5 0.00 0.00 0.00 74 1018.1
20260901084003 62 173 1.7 4.3 0.00 0.00 0.00 76 1018.0
20260901083503 62 175 1.7 4.3 0.00 0.00 0.00 76 1018.1
20260901083003 62 166 1.7 5.2 0.00 0.00 0.00 78 1018.1
20260901082503 62 168 1.7 5.2 0.00 0.00 0.00 78 1018.3
20260901082003 62 158 1.7 4.3 0.00 0.00 0.00 78 1018.1
20260901081503 62 162 1.7 4.3 0.00 0.00 0.00 78 1018.1
20260901081005 62 165 0.9 4.3 0.00 0.00 0.00 78 1018.0
20260901080505 62 157 1.7 4.3 0.00 0.00 0.00 79 1018.1
20260901080216 62 159 0.9 4.3 0.00 0.00 0.00 79 1018.1
20260901075714 61 158 1.7 4.3 0.00 0.00 0.00 79 1018.0
20260901075217 61 154 0.9 3.5 0.00 0.00 0.00 81 1018.0
20260901074503 60 156 0.9 3.5 0.00 0.00 0.00 82 1017.8
20260901074003 60 153 0.9 3.5 0.00 0.00 0.00 83 1018.2
20260901073504 59 148 0.9 2.6 0.00 0.00 0.00 83 1018.0
20260901073004 59 155 0.9 3.5 0.00 0.00 0.00 83 1018.0
20260901072503 58 155 0.9 3.5 0.00 0.00 0.00 84 1018.1
20260901072005 58 153 0.9 3.5 0.00 0.00 0.00 84 1018.3
20260901071503 57 152 0.9 2.6 0.00 0.00 0.00 85 1018.0
20260901071003 56 148 0.9 2.6 0.00 0.00 0.00 85 1017.9
20260901070503 55 142 0.9 1.7 0.00 0.00 0.00 86 1017.5
20260901070003 54 134 0.9 2.6 0.00 0.00 0.00 87 1017.5
20260901065715 53 131 0.9 2.6 0.00 0.00 0.00 88 1017.8
20260901065005 52 135 0.9 1.7 0.00 0.00 0.00 90 1017.7
20260901064503 51 130 0.9 1.7 0.00 0.00 0.00 92 1017.6
20260901064003 51 128 0.9 1.7 0.00 0.00 0.00 94 1017.6
20260901063717 51 122 0.9 1.7 0.00 0.00 0.00 94 1017.7
20260901063003 50 107 0.9 1.7 0.00 0.00 0.00 95 1017.7
20260901062504 49 106 0.9 1.7 0.00 0.00 0.00 95 1017.5
20260901062005 49 106 0.9 1.7 0.00 0.00 0.00 95 1017.4
20260901061504 49 103 0.9 1.7 0.00 0.00 0.00 95 1017.7
20260901061005 49 103 0.9 1.7 0.00 0.00 0.00 95 1017.6
20260901060503 49 106 0.9 1.7 0.00 0.00 0.00 95 1017.6
20260901060003 48 113 0.9 1.7 0.00 0.00 0.00 95 1017.7
20260901055504 49 115 0.9 1.7 0.00 0.00 0.00 94 1017.6
20260901055003 48 111 0.9 1.7 0.00 0.00 0.00 94 1017.6
20260901054503 49 112 0.9 1.7 0.00 0.00 0.00 94 1017.7
20260901054003 48 115 0.9 1.7 0.00 0.00 0.00 94 1017.3
20260901053503 48 114 0.9 1.7 0.00 0.00 0.00 94 1017.4
20260901053004 48 114 0.9 1.7 0.00 0.00 0.00 94 1017.3
20260901052505 48 115 0.9 1.7 0.00 0.00 0.00 94 1017.2
20260901052216 48 109 0.9 1.7 0.00 0.00 0.00 94 1017.3
20260901051503 49 110 0.9 1.7 0.00 0.00 0.00 94 1017.5
20260901051003 49 117 0.9 1.7 0.00 0.00 0.00 94 1017.3
20260901050715 49 116 0.9 1.7 0.00 0.00 0.00 94 1017.2
20260901050003 49 115 0.9 1.7 0.00 0.00 0.00 94 1017.2
20260901045716 49 115 0.9 1.7 0.00 0.00 0.00 94 1017.3
20260901045004 49 113 0.9 1.7 0.00 0.00 0.00 94 1017.2
20260901044506 49 111 0.9 1.7 0.00 0.00 0.00 94 1017.0
20260901044003 49 114 0.9 1.7 0.00 0.00 0.00 93 1016.9
20260901043503 49 113 0.9 1.7 0.00 0.00 0.00 93 1017.0
20260901043003 50 109 0.9 1.7 0.00 0.00 0.00 93 1016.9
20260901042505 50 108 0.9 1.7 0.00 0.00 0.00 93 1017.1
20260901042217 50 108 0.9 1.7 0.00 0.00 0.00 93 1017.0
20260901041503 50 105 0.9 1.7 0.00 0.00 0.00 93 1017.2
20260901041003 49 106 0.9 1.7 0.00 0.00 0.00 93 1017.0
20260901040716 49 108 0.9 1.7 0.00 0.00 0.00 93 1017.1
20260901040003 50 111 0.9 1.7 0.00 0.00 0.00 93 1017.1
20260901035717 50 111 0.9 1.7 0.00 0.00 0.00 93 1017.1
20260901035003 50 113 0.9 1.7 0.00 0.00 0.00 93 1017.2